Time,TemperatureF,DewpointF,PressureIn,WindDirection,WindDirectionDegrees,WindSpeedMPH,WindSpeedGustMPH,Humidity,HourlyPrecipIn,Conditions,Clouds,dailyrainin,SolarRadiationWatts/m^2,SoftwareType,DateUTC
2013-06-26 02:01:00,50.0,50.0,-100.00,ENE,72,1.0,4.0,100,-99.99,,,0.00,0.000000,,2013-06-26 10:01:00,
2013-06-26 03:02:00,50.0,50.0,-100.00,WNW,293,1.0,2.0,100,0.00,,,0.00,0.000000,,2013-06-26 11:02:00,
2013-06-26 03:11:00,50.0,50.0,-100.00,WNW,293,1.0,2.0,100,0.00,,,0.00,0.000000,,2013-06-26 11:11:00,
2013-06-26 03:22:00,50.0,50.0,-100.00,WNW,293,1.0,2.0,100,0.00,,,0.00,0.000000,,2013-06-26 11:22:00,
2013-06-26 03:44:00,54.0,54.0,-100.00,NW,313,1.0,2.0,100,0.00,,,0.00,0.000000,,2013-06-26 11:44:00,
2013-06-26 03:52:00,54.0,54.0,-100.00,NW,313,1.0,2.0,100,0.00,,,0.00,0.000000,,2013-06-26 11:52:00,
2013-06-26 04:02:00,54.0,54.0,-100.00,NW,313,1.0,2.0,100,0.00,,,0.00,0.000000,,2013-06-26 12:02:00,
2013-06-26 04:11:00,54.0,54.0,-100.00,NW,313,1.0,2.0,100,0.00,,,0.00,0.000000,,2013-06-26 12:11:00,
2013-06-26 04:22:00,54.0,54.0,-100.00,NW,313,1.0,2.0,100,0.00,,,0.00,0.000000,,2013-06-26 12:22:00,
2013-06-26 04:43:00,55.0,55.0,-100.00,NNE,25,1.0,5.0,100,0.00,,,0.00,0.000000,,2013-06-26 12:43:00,
2013-06-26 04:52:00,55.0,55.0,-100.00,NNE,25,1.0,5.0,100,0.00,,,0.00,0.000000,,2013-06-26 12:52:00,
2013-06-26 05:02:00,55.0,55.0,-100.00,NNE,25,1.0,5.0,100,0.00,,,0.00,0.000000,,2013-06-26 13:02:00,
2013-06-26 05:11:00,55.0,55.0,-100.00,NNE,25,1.0,5.0,100,0.00,,,0.00,0.000000,,2013-06-26 13:11:00,
2013-06-26 05:22:00,55.0,55.0,-100.00,NNE,25,1.0,5.0,100,0.00,,,0.00,0.000000,,2013-06-26 13:22:00,
2013-06-26 05:43:00,50.0,50.0,-100.00,NNW,332,0.0,2.0,99,0.00,,,0.00,1.000000,,2013-06-26 13:43:00,
2013-06-26 05:53:00,50.0,50.0,-100.00,NNW,332,0.0,2.0,99,0.00,,,0.00,1.000000,,2013-06-26 13:53:00,
2013-06-26 06:02:00,50.0,50.0,-100.00,NNW,332,0.0,2.0,99,0.00,,,0.00,1.000000,,2013-06-26 14:02:00,
2013-06-26 06:11:00,50.0,50.0,-100.00,NNW,332,0.0,2.0,99,0.00,,,0.00,1.000000,,2013-06-26 14:11:00,
2013-06-26 06:23:00,50.0,50.0,-100.00,NNW,332,0.0,2.0,99,0.00,,,0.00,1.000000,,2013-06-26 14:23:00,
2013-06-26 11:52:00,54.0,54.0,-100.00,NE,47,0.0,1.0,100,-99.99,,,0.00,126.000000,,2013-06-26 19:52:00,
2013-06-26 12:01:00,54.0,54.0,-100.00,NE,47,0.0,1.0,100,-99.99,,,0.00,126.000000,,2013-06-26 20:01:00,
2013-06-26 12:12:00,54.0,54.0,-100.00,NE,47,0.0,1.0,100,-99.99,,,0.00,126.000000,,2013-06-26 20:12:00,
2013-06-26 12:22:00,54.0,54.0,-100.00,NE,47,0.0,1.0,100,-99.99,,,0.00,126.000000,,2013-06-26 20:22:00,
2013-06-26 12:43:00,55.0,55.0,-100.00,ENE,64,1.0,2.0,98,0.00,,,0.00,175.000000,,2013-06-26 20:43:00,
2013-06-26 12:52:00,55.0,55.0,-100.00,ENE,64,1.0,2.0,98,0.00,,,0.00,175.000000,,2013-06-26 20:52:00,
2013-06-26 13:02:00,55.0,55.0,-100.00,ENE,64,1.0,2.0,98,0.00,,,0.00,175.000000,,2013-06-26 21:02:00,
2013-06-26 13:11:00,55.0,55.0,-100.00,ENE,64,1.0,2.0,98,0.00,,,0.00,175.000000,,2013-06-26 21:11:00,
2013-06-26 13:23:00,55.0,55.0,-100.00,ENE,64,1.0,2.0,98,0.00,,,0.00,175.000000,,2013-06-26 21:23:00,
2013-06-26 13:52:00,55.0,52.0,-100.00,NE,49,0.0,1.0,89,0.00,,,0.00,173.000000,,2013-06-26 21:52:00,
2013-06-26 16:53:00,59.0,55.0,-100.00,SSE,150,0.0,1.0,88,-99.99,,,0.00,124.000000,,2013-06-27 00:53:00,
2013-06-26 17:01:00,59.0,55.0,-100.00,SSE,150,0.0,1.0,88,-99.99,,,0.00,124.000000,,2013-06-27 01:01:00,
2013-06-26 17:11:00,59.0,55.0,-100.00,SSE,150,0.0,1.0,88,-99.99,,,0.00,124.000000,,2013-06-27 01:11:00,
2013-06-26 17:21:00,59.0,55.0,-100.00,SSE,150,0.0,1.0,88,-99.99,,,0.00,124.000000,,2013-06-27 01:21:00,
2013-06-26 19:11:00,55.0,53.0,-100.00,NE,42,0.0,1.0,92,0.00,,,-99.99,64.000000,,2013-06-27 03:11:00,
2013-06-26 19:21:00,55.0,53.0,-100.00,NE,42,0.0,1.0,92,0.00,,,-99.99,64.000000,,2013-06-27 03:21:00,
2013-06-26 21:42:00,52.0,51.0,-100.00,ENE,62,0.0,1.0,98,-99.99,,,-99.99,10.000000,,2013-06-27 05:42:00,
2013-06-26 21:53:00,52.0,51.0,-100.00,ENE,62,0.0,1.0,98,-99.99,,,-99.99,10.000000,,2013-06-27 05:53:00,
2013-06-26 22:01:00,52.0,51.0,-100.00,ENE,62,0.0,1.0,98,-99.99,,,-99.99,10.000000,,2013-06-27 06:01:00,
2013-06-26 22:12:00,52.0,51.0,-100.00,ENE,62,0.0,1.0,98,-99.99,,,-99.99,10.000000,,2013-06-27 06:12:00,
2013-06-26 22:22:00,52.0,51.0,-100.00,ENE,62,0.0,1.0,98,-99.99,,,-99.99,10.000000,,2013-06-27 06:22:00,
2013-06-26 22:43:00,52.0,52.0,-100.00,ENE,69,0.0,2.0,99,0.00,,,0.00,2.000000,,2013-06-27 06:43:00,
2013-06-26 22:53:00,52.0,52.0,-100.00,ENE,69,0.0,2.0,99,0.00,,,0.00,2.000000,,2013-06-27 06:53:00,
2013-06-26 23:02:00,52.0,52.0,-100.00,ENE,69,0.0,2.0,99,0.00,,,0.00,2.000000,,2013-06-27 07:02:00,
2013-06-26 23:12:00,52.0,52.0,-100.00,ENE,69,0.0,2.0,99,0.00,,,0.00,2.000000,,2013-06-27 07:12:00,
2013-06-26 23:22:00,52.0,52.0,-100.00,ENE,69,0.0,2.0,99,0.00,,,0.00,2.000000,,2013-06-27 07:22:00,
2013-06-26 23:52:00,54.0,53.0,-100.00,NE,46,1.0,3.0,98,0.00,,,0.00,0.000000,,2013-06-27 07:52:00,